Location: Newark
(0.5333°S, 166.9167°E)
Time: 19:55:51
(UTC+00:00)

YUBILEINY - Visible Passes

Search period start: 22 May 2019 00:00
Search period end: 01 June 2019 00:00
Orbit: 1478 x 1508 km, 82.5° (Epoch: 22 May)

Date Brightness Start Highest point End Pass type
(mag) Time Alt. Az. Time Alt. Az. Time Alt. Az.
22 May ? 08:31:38 10° SSW 08:39:10 32° W 08:46:44 10° NNW visible
23 May ? 07:40:59 10° S 07:49:46 70° W 07:58:32 10° N visible
23 May ? 18:20:04 10° NNE 18:27:10 28° E 18:34:14 10° SE visible
24 May ? 08:51:29 10° SW 08:56:43 17° W 09:02:00 10° NW visible
24 May ? 17:36:53 10° E 17:37:44 10° E 17:38:36 10° E visible
25 May ? 07:59:14 10° SSW 08:07:19 41° W 08:15:24 10° NNW visible
26 May ? 07:09:02 10° S 07:17:55 86° W 07:26:45 10° N visible
26 May ? 17:49:04 10° NE 17:55:17 22° E 18:01:30 10° SE visible
27 May ? 08:18:26 10° SW 08:24:52 23° W 08:31:20 10° NW visible
28 May ? 07:27:00 10° SSW 07:35:27 51° W 07:43:55 10° NNW visible
28 May ? 18:04:55 10° NNE 18:12:50 40° E 18:20:44 10° SSE visible
29 May ? 08:40:31 10° W 08:42:25 11° W 08:44:20 10° WNW visible
29 May ? 17:18:26 10° NE 17:23:25 17° E 17:28:22 10° ESE visible
30 May ? 07:45:44 10° SW 07:53:00 29° W 08:00:18 10° NNW visible
30 May ? 18:21:46 10° N 18:30:22 69° E 18:39:00 10° SSE visible
31 May ? 17:33:35 10° NNE 17:40:57 31° E 17:48:19 10° SE visible
